Regional Weather Roundup
Issued by NWS

Home | Current Version | Previous Version | Graphics & Text | Print | Product List | Glossary Off
Versions: 1 2 3 4 5 6 7 8 9 10 11 12 13 14 15 16 17 18 19 20 21 22 23 24 25 26 27 28 29 30 31 32 33 34 35 36 37 38 39 40 41 42 43 44 45 46 47 48 49 50

000
ASUS43 KLSX 291510
RWRMO

WEATHER SUMMARY FOR MISSOURI
NATIONAL WEATHER SERVICE SPRINGFIELD MO
1000 AM CDT SAT AUG 29 2015

NOTE: "FAIR" INDICATES FEW OR NO CLOUDS BELOW 12,000 FEET WITH NO
       SIGNIFICANT WEATHER AND/OR OBSTRUCTIONS TO VISIBILITY.
       CURRENT SKY AND/OR WEATHER CONDITIONS ARE NOT AVAILABLE FOR
       CHILLICOTHE AND FARMINGTON.

MOZ001>031-035>038-043-044-053-054-291600-
...NORTHERN AND WESTERN MISSOURI...

CITY           SKY/WX    TMP DP  RH WIND       PRES   REMARKS
KANSAS CTY INT CLOUDY    69  66  90 N5        30.01R FOG
KANSAS C DTWN  CLOUDY    71  67  87 N6        30.00R
LEE`S SUMMIT   CLOUDY    72  67  84 N7        30.01R
ST JOSEPH      CLOUDY    68  66  93 N9        30.01R
CHILLICOTHE      N/A     76  70  82 VRB5      30.00R
KIRKSVILLE     CLOUDY    71  65  81 SW7       30.01R

$$
MOZ066>068-077>081-088>096-101>105-291600-
...SOUTHWEST MISSOURI...

CITY           SKY/WX    TMP DP  RH WIND       PRES   REMARKS
SPRINGFIELD    CLOUDY    70  63  78 S10       30.04R
JOPLIN         CLOUDY    75  64  68 SW8       30.02R

$$
MOZ032>034-039>042-045>050-055>058-069>072-291600-
...CENTRAL MISSOURI...

CITY           SKY/WX    TMP DP  RH WIND       PRES   REMARKS
COLUMBIA       PTSUNNY   75  64  68 S13       30.02R
JEFFERSON CITY MOSUNNY   76  63  64 S12       30.01S
ROLLA          LGT RAIN  67  65  93 S10       30.03R
SEDALIA        CLOUDY    73  64  73 SW7       30.02R
WHITEMAN AFB   CLOUDY    71  66  84 SW7       30.00R
WARRENSBURG    CLOUDY    70  66  88 S5        30.00R
OSAGE BEACH    CLOUDY    75  63  64 S9        30.03S

$$
MOZ051-052-059>065-291600-
...EAST CENTRAL MISSOURI...

CITY           SKY/WX    TMP DP  RH WIND       PRES   REMARKS
ST LOUIS INTL  CLOUDY    77  64  64 SW9       30.04R
SPIRIT OF STL  CLOUDY    75  65  70 SW3       30.02R
ST CHARLES     CLOUDY    75  67  76 S8        30.02R

$$
MOZ072>076-082>087-097>100-106>115-291600-
...SOUTH CENTRAL AND SOUTHEAST MISSOURI...

CITY           SKY/WX    TMP DP  RH WIND       PRES   REMARKS
CAPE GIRARDEAU PTSUNNY   77  68  73 S7        30.07R
FARMINGTON     CLOUDY    73  64  73 S5        30.09R
POPLAR BLUFF   CLOUDY    73  70  90 S3        30.06R
WEST PLAINS    HVY RAIN  66  63  90 SE7       30.11S FOG

$$


USA.gov is the U.S. government's official web portal to all federal, state and local government web resources and services.